GFSNW_prec_precacc_324.txt.gz
Total_Precipitation_Accumulation
1.48 1.54 2.20 2.87 3.01 3.86 4.73 5.09 4.42 2.11 3.61 7.03 6.57 3.30 1.13 0.56 0.31 0.32 0.84 1.15 1.29 1.36 1.38 1.52 2.08 1.62 1.23 0.68 0.85 1.20 1.37 2.63 1.47 0.96 0.64 0.88 1.50 2.82 4.13 5.96 5.44 4.96 4.69 4.93
1.62 1.57 2.04 3.11 3.51 4.44 5.47 6.04 3.70 3.07 4.77 6.06 3.30 1.42 0.69 0.64 0.60 0.52 1.03 1.15 1.37 1.53 1.63 1.97 1.41 1.51 0.97 0.77 1.01 1.49 1.59 2.43 2.01 1.34 1.42 1.61 1.58 1.79 2.53 3.73 4.86 5.11 4.85 5.06
1.98 1.71 1.99 3.24 3.61 4.49 6.06 6.69 4.90 4.83 6.16 3.60 1.46 1.35 1.26 1.05 0.60 0.65 0.83 1.20 1.31 1.32 1.09 1.23 1.48 0.95 0.60 0.42 0.52 0.83 1.63 2.41 1.90 1.73 1.66 1.92 2.05 1.67 1.73 2.94 4.75 3.72 3.37 3.14
2.23 1.95 1.99 3.15 4.00 5.11 7.44 8.26 4.34 2.40 3.39 2.83 1.65 1.55 1.75 1.16 0.91 0.84 0.71 1.17 1.09 1.30 1.49 0.90 0.91 0.83 0.58 0.37 0.34 0.47 1.20 2.28 1.28 1.01 1.01 0.84 1.14 1.48 1.72 2.15 2.19 2.80 2.85 2.32
2.42 2.18 2.22 3.03 4.29 6.38 9.50 7.84 2.66 1.53 1.00 0.75 1.41 2.57 2.35 1.27 0.93 1.26 0.97 0.94 0.63 0.87 1.31 1.18 1.12 1.08 1.16 0.90 0.54 0.57 0.78 1.54 1.31 1.06 0.77 0.60 0.93 1.25 0.97 1.09 1.59 1.88 1.35 2.25
2.48 2.60 2.58 3.15 4.38 7.40 10.59 6.00 2.03 2.48 1.57 0.88 1.53 1.66 1.31 1.06 1.27 1.10 0.85 1.06 1.35 1.04 0.75 0.77 0.81 0.76 1.06 1.04 0.96 0.99 0.92 1.18 1.29 1.02 0.44 0.69 1.88 1.67 0.92 0.82 0.78 0.83 1.11 1.78
2.67 2.62 2.93 3.63 4.50 5.82 5.86 3.78 2.07 3.47 2.71 1.48 1.08 0.73 0.82 0.94 1.25 1.57 0.77 0.84 1.00 0.67 0.51 0.61 0.74 0.65 0.50 0.59 0.49 0.87 1.27 1.03 1.41 1.07 0.90 2.67 2.00 0.65 0.47 0.33 0.33 0.43 0.43 0.49
2.94 2.57 2.82 3.96 4.49 4.13 3.90 3.05 2.83 3.62 2.65 0.95 0.90 0.90 0.83 0.79 1.18 1.32 0.91 0.70 0.76 0.76 0.89 1.44 1.39 1.02 0.83 0.40 0.41 0.38 0.55 1.21 1.79 1.47 1.12 1.60 1.31 0.47 0.45 0.43 0.38 0.26 0.19 0.28
3.28 2.81 2.86 3.75 4.29 3.85 3.92 2.94 3.21 4.43 3.81 1.40 0.60 1.13 1.29 1.25 1.51 1.67 1.07 0.57 0.44 0.78 1.26 1.83 1.79 1.26 0.83 0.57 0.55 0.47 0.71 1.15 2.38 2.06 1.68 2.12 1.13 0.18 0.14 0.40 0.86 0.26 0.13 0.13
3.07 3.14 3.13 3.20 3.77 4.03 4.27 3.36 2.75 5.13 4.78 1.05 0.60 0.94 1.20 1.50 1.50 1.79 1.40 1.11 1.01 1.17 1.74 1.86 1.37 1.20 0.93 1.01 0.89 0.91 1.25 1.87 2.62 2.39 2.66 1.88 0.83 0.21 0.18 1.07 1.37 0.37 0.28 0.20
2.45 2.59 3.26 3.48 3.39 3.96 5.12 3.91 2.43 3.66 4.19 1.38 0.66 0.61 0.86 0.98 1.40 1.65 1.93 2.06 2.12 2.10 2.28 2.06 1.56 1.39 1.34 1.15 0.90 1.11 1.54 1.87 1.87 2.07 2.66 2.45 0.81 0.60 0.91 1.13 0.50 0.23 0.19 0.23
2.37 2.13 2.47 3.53 3.64 3.83 5.02 4.80 3.03 3.38 3.94 2.18 0.91 0.47 0.44 0.59 0.92 1.32 1.53 2.01 1.74 2.42 2.82 2.31 1.69 1.43 1.47 1.13 1.39 0.88 1.57 1.40 1.41 1.37 1.90 1.72 1.34 1.11 0.64 0.39 0.48 0.39 0.24 0.29
2.18 2.03 2.24 3.13 3.68 3.97 4.67 4.29 3.17 5.19 5.11 2.46 1.26 0.97 0.38 0.29 0.29 0.58 1.23 1.24 1.47 1.65 1.86 2.02 1.72 1.57 1.42 1.12 0.95 0.94 0.95 0.99 1.34 1.56 1.22 0.98 1.44 1.00 0.60 0.47 0.53 0.44 0.25 0.26
2.08 2.13 2.45 3.12 3.78 3.94 4.45 4.38 3.42 4.41 4.10 3.50 1.72 0.68 0.64 0.37 0.27 0.23 0.35 0.61 0.69 0.91 1.24 1.73 1.63 1.26 0.95 0.87 0.62 0.56 0.71 0.85 1.00 1.49 1.14 1.07 1.09 1.25 0.69 0.42 0.40 0.40 0.19 0.18
2.13 2.32 2.83 3.59 4.35 4.41 4.71 4.38 3.28 2.90 3.48 3.55 1.86 0.66 0.58 0.66 0.49 0.40 0.37 0.51 0.81 1.22 1.88 1.62 0.83 0.69 1.01 0.70 0.75 0.58 0.29 0.60 1.27 1.57 1.51 1.41 1.28 1.10 1.13 0.74 0.49 0.42 0.52 0.41
2.26 2.45 3.14 3.77 4.35 5.48 7.21 10.54 5.86 2.70 3.02 3.96 2.52 1.27 0.55 0.65 0.69 0.81 0.69 0.72 1.05 1.55 1.83 1.38 0.68 0.46 1.32 1.02 0.82 0.61 0.60 0.38 0.38 0.66 0.78 1.14 1.18 0.72 0.41 0.34 0.22 0.14 0.33 0.28
2.40 2.69 2.95 3.64 4.47 5.63 6.19 5.66 3.65 1.85 3.28 5.18 3.11 2.00 1.07 0.78 1.19 1.25 1.29 1.16 1.72 1.86 2.12 1.48 0.80 0.58 1.38 1.28 0.76 0.47 0.32 0.21 0.13 0.14 0.24 0.30 0.21 0.17 0.04 0.02 0.02 0.02 0.05 0.10
2.83 3.23 3.44 4.24 5.40 6.47 4.09 1.72 1.50 2.08 3.71 3.62 3.13 2.21 1.99 1.11 1.93 1.93 1.44 1.87 2.17 2.08 1.63 1.11 0.76 0.86 1.65 1.55 0.46 0.23 0.16 0.10 0.05 0.07 0.07 0.06 0.05 0.03 0.02 0.02 0.02 0.02 0.03 0.08
3.42 3.87 5.11 7.79 9.01 7.73 4.40 2.25 2.61 2.64 3.47 3.26 1.82 1.65 2.63 1.66 2.09 2.41 1.98 1.91 2.23 1.60 1.43 0.91 1.00 1.14 1.78 1.14 0.57 0.38 0.26 0.18 0.13 0.11 0.08 0.08 0.10 0.11 0.12 0.11 0.12 0.16 0.28 0.33
4.09 6.19 8.84 10.94 7.58 3.94 4.09 6.56 7.84 6.49 3.30 1.74 1.05 0.90 1.88 2.11 2.34 2.73 2.82 2.27 1.59 1.40 0.94 0.99 1.51 1.22 0.82 0.63 0.87 0.92 0.50 0.34 0.21 0.19 0.16 0.17 0.17 0.17 0.23 0.29 0.36 0.46 0.45 0.36
7.15 8.53 7.46 6.21 4.69 4.45 6.40 7.49 6.45 4.59 2.57 0.83 0.55 0.50 0.99 1.57 2.40 2.08 1.97 2.59 2.34 1.52 1.15 1.15 1.53 1.72 1.15 0.97 1.16 0.87 0.31 0.22 0.25 0.24 0.24 0.26 0.29 0.38 0.48 0.47 0.36 0.29 0.32 0.40
5.05 4.42 5.55 6.06 6.32 6.30 5.38 4.44 2.77 1.70 0.92 0.38 0.39 0.45 0.64 1.40 2.59 2.66 2.13 1.99 2.07 2.04 2.11 1.98 1.82 1.56 0.99 1.09 1.15 0.82 0.47 0.37 0.23 0.25 0.35 0.41 0.49 0.51 0.39 0.32 0.35 0.41 0.43 0.52
3.53 4.29 5.96 5.33 5.37 4.96 3.29 2.12 1.11 0.92 0.70 0.52 0.43 0.77 1.14 1.33 2.47 2.93 2.10 1.95 1.91 1.62 2.17 2.50 2.40 1.39 0.86 0.85 0.74 0.73 0.58 0.39 0.37 0.44 0.50 0.36 0.29 0.31 0.38 0.46 0.60 0.62 0.69 0.88
4.44 4.63 4.39 3.56 2.70 1.64 1.07 0.63 0.54 0.62 0.67 0.62 0.60 0.93 1.29 1.64 2.37 3.04 2.38 1.88 1.21 1.58 1.82 2.58 1.92 1.21 1.41 0.91 0.77 0.72 0.92 0.83 0.71 0.72 0.70 0.83 0.74 0.81 0.96 0.85 0.88 0.70 0.79 0.98
3.15 2.44 1.81 1.41 1.21 0.96 0.81 0.68 0.68 0.75 1.09 1.19 1.51 1.60 1.60 1.90 2.23 1.81 1.46 1.11 1.06 1.15 1.61 2.44 1.47 1.16 1.22 0.87 0.62 0.63 0.76 0.84 0.80 0.87 0.93 1.03 0.93 0.84 1.10 1.08 0.89 0.66 0.64 0.64
1.71 1.63 1.46 1.14 1.01 1.13 1.03 0.90 0.93 1.16 1.49 1.59 1.69 1.86 1.94 1.97 1.40 1.18 1.00 0.89 1.39 1.62 1.28 1.25 1.07 1.07 1.11 1.09 0.90 0.85 0.91 0.88 0.78 0.70 0.69 0.73 0.71 0.66 0.68 0.75 0.71 0.65 0.49 0.47
1.42 1.37 1.39 1.36 1.14 1.16 1.20 1.07 1.04 1.08 1.26 1.48 1.27 1.65 1.49 1.43 1.30 1.41 1.20 1.73 2.00 1.39 1.17 1.00 1.04 1.11 1.13 1.02 0.96 0.91 0.78 0.63 0.62 0.60 0.52 0.49 0.46 0.35 0.27 0.35 0.51 0.46 0.45 0.42

GFSNW_prec_precacc_327.txt.gz
Total_Precipitation_Accumulation
1.48 1.54 2.20 2.87 3.01 3.86 4.73 5.09 4.42 2.11 3.61 7.03 6.57 3.30 1.13 0.56 0.31 0.32 0.84 1.15 1.29 1.36 1.38 1.52 2.08 1.62 1.23 0.68 0.85 1.20 1.37 2.63 1.47 0.96 0.64 0.88 1.50 2.82 4.13 5.96 5.45 4.97 4.70 4.98
1.62 1.57 2.04 3.11 3.51 4.44 5.47 6.04 3.70 3.07 4.77 6.06 3.30 1.42 0.69 0.64 0.60 0.52 1.03 1.15 1.37 1.53 1.63 1.97 1.41 1.51 0.97 0.77 1.01 1.49 1.59 2.43 2.01 1.34 1.42 1.61 1.58 1.79 2.53 3.73 4.88 5.14 4.88 5.11
1.98 1.71 1.99 3.24 3.61 4.49 6.06 6.69 4.90 4.83 6.16 3.60 1.46 1.35 1.26 1.05 0.60 0.65 0.83 1.20 1.31 1.32 1.09 1.23 1.48 0.95 0.60 0.42 0.52 0.83 1.63 2.41 1.90 1.73 1.66 1.92 2.05 1.67 1.73 2.95 4.80 3.78 3.38 3.21
2.23 1.95 1.99 3.15 4.00 5.11 7.44 8.26 4.34 2.40 3.39 2.83 1.65 1.55 1.75 1.16 0.91 0.84 0.71 1.17 1.09 1.30 1.49 0.90 0.91 0.83 0.58 0.37 0.34 0.47 1.20 2.28 1.28 1.01 1.01 0.84 1.15 1.55 1.77 2.17 2.20 2.82 2.89 2.50
2.42 2.18 2.22 3.03 4.29 6.38 9.50 7.84 2.66 1.53 1.00 0.75 1.41 2.57 2.35 1.27 0.93 1.26 0.97 0.94 0.63 0.87 1.31 1.18 1.12 1.08 1.16 0.90 0.54 0.57 0.78 1.54 1.31 1.06 0.77 0.62 1.14 1.45 1.14 1.15 1.60 1.98 1.51 2.34
2.48 2.60 2.58 3.15 4.38 7.40 10.59 6.00 2.03 2.48 1.57 0.88 1.53 1.66 1.31 1.06 1.27 1.10 0.85 1.06 1.35 1.04 0.75 0.77 0.81 0.76 1.06 1.04 0.96 0.99 0.92 1.18 1.29 1.02 0.44 0.79 2.06 1.74 0.97 0.87 0.78 0.83 1.11 1.79
2.67 2.62 2.93 3.63 4.50 5.82 5.86 3.78 2.07 3.47 2.71 1.48 1.08 0.73 0.82 0.94 1.25 1.57 0.77 0.84 1.00 0.67 0.51 0.61 0.74 0.65 0.50 0.59 0.49 0.87 1.27 1.03 1.41 1.07 0.93 2.80 2.09 0.68 0.49 0.37 0.34 0.43 0.43 0.50
2.94 2.57 2.82 3.96 4.49 4.13 3.90 3.05 2.83 3.62 2.65 0.95 0.90 0.90 0.83 0.79 1.18 1.32 0.91 0.70 0.76 0.76 0.89 1.44 1.39 1.02 0.83 0.40 0.41 0.38 0.55 1.21 1.79 1.47 1.15 1.71 1.36 0.47 0.45 0.44 0.39 0.26 0.19 0.28
3.28 2.81 2.86 3.75 4.29 3.85 3.92 2.94 3.21 4.43 3.81 1.40 0.60 1.13 1.29 1.25 1.51 1.67 1.07 0.57 0.44 0.78 1.26 1.83 1.79 1.26 0.83 0.57 0.55 0.47 0.71 1.15 2.38 2.06 1.70 2.17 1.19 0.20 0.14 0.41 0.87 0.26 0.13 0.13
3.07 3.14 3.13 3.20 3.77 4.03 4.27 3.36 2.75 5.13 4.78 1.05 0.60 0.94 1.20 1.50 1.50 1.79 1.40 1.11 1.01 1.17 1.74 1.86 1.37 1.20 0.93 1.01 0.89 0.91 1.25 1.87 2.62 2.41 2.67 1.92 0.89 0.29 0.18 1.09 1.39 0.37 0.28 0.20
2.45 2.59 3.26 3.48 3.39 3.96 5.12 3.91 2.43 3.66 4.19 1.38 0.66 0.61 0.86 0.98 1.40 1.65 1.93 2.06 2.12 2.10 2.28 2.06 1.56 1.39 1.34 1.15 0.90 1.11 1.55 1.87 1.87 2.07 2.67 2.49 0.82 0.61 0.91 1.14 0.51 0.23 0.19 0.23
2.37 2.13 2.47 3.53 3.64 3.83 5.02 4.80 3.03 3.38 3.94 2.18 0.91 0.47 0.44 0.59 0.92 1.32 1.53 2.01 1.74 2.42 2.82 2.31 1.69 1.43 1.47 1.13 1.39 0.88 1.57 1.40 1.41 1.37 1.90 1.72 1.34 1.11 0.64 0.39 0.48 0.39 0.24 0.29
2.18 2.03 2.24 3.13 3.68 3.97 4.67 4.29 3.17 5.19 5.11 2.46 1.26 0.97 0.38 0.29 0.29 0.58 1.23 1.24 1.47 1.65 1.86 2.02 1.72 1.57 1.42 1.12 0.95 0.94 0.95 0.99 1.34 1.56 1.22 0.98 1.44 1.00 0.60 0.47 0.53 0.44 0.25 0.26
2.08 2.13 2.45 3.12 3.78 3.94 4.45 4.38 3.42 4.41 4.10 3.50 1.72 0.68 0.64 0.37 0.27 0.23 0.35 0.61 0.69 0.91 1.24 1.73 1.63 1.26 0.95 0.87 0.62 0.56 0.71 0.85 1.00 1.49 1.14 1.07 1.09 1.25 0.69 0.42 0.40 0.40 0.19 0.18
2.13 2.32 2.83 3.59 4.35 4.41 4.71 4.38 3.28 2.90 3.48 3.55 1.86 0.66 0.58 0.66 0.49 0.40 0.37 0.51 0.81 1.22 1.88 1.62 0.83 0.69 1.01 0.70 0.75 0.60 0.31 0.63 1.30 1.57 1.51 1.41 1.28 1.10 1.13 0.74 0.49 0.42 0.52 0.41
2.26 2.45 3.14 3.77 4.35 5.48 7.21 10.54 5.86 2.70 3.02 3.96 2.52 1.27 0.55 0.65 0.69 0.81 0.69 0.72 1.05 1.55 1.83 1.38 0.68 0.46 1.32 1.02 0.82 0.62 0.63 0.40 0.40 0.67 0.78 1.14 1.18 0.72 0.41 0.34 0.22 0.14 0.33 0.28
2.40 2.69 2.95 3.64 4.47 5.63 6.19 5.66 3.65 1.85 3.28 5.18 3.11 2.00 1.07 0.78 1.19 1.25 1.29 1.16 1.72 1.86 2.12 1.48 0.80 0.58 1.38 1.29 0.80 0.52 0.38 0.23 0.14 0.14 0.24 0.30 0.21 0.17 0.04 0.02 0.02 0.02 0.05 0.10
2.83 3.23 3.44 4.24 5.40 6.47 4.09 1.72 1.50 2.08 3.71 3.62 3.13 2.21 1.99 1.11 1.93 1.93 1.44 1.87 2.17 2.08 1.63 1.11 0.76 0.86 1.65 1.57 0.49 0.30 0.22 0.11 0.05 0.07 0.07 0.06 0.05 0.03 0.02 0.02 0.02 0.02 0.03 0.08
3.42 3.87 5.11 7.79 9.01 7.73 4.40 2.25 2.61 2.64 3.47 3.26 1.82 1.65 2.63 1.66 2.09 2.41 1.98 1.91 2.23 1.60 1.43 0.91 1.00 1.15 1.79 1.16 0.60 0.48 0.31 0.22 0.14 0.11 0.08 0.08 0.10 0.11 0.12 0.11 0.12 0.16 0.28 0.33
4.09 6.19 8.84 10.94 7.58 3.94 4.09 6.56 7.84 6.49 3.30 1.74 1.05 0.90 1.88 2.11 2.34 2.73 2.82 2.27 1.59 1.40 0.94 0.99 1.51 1.22 0.83 0.63 0.91 1.12 0.55 0.39 0.22 0.19 0.16 0.17 0.17 0.17 0.23 0.29 0.36 0.46 0.45 0.36
7.15 8.53 7.46 6.21 4.69 4.45 6.40 7.49 6.45 4.59 2.57 0.83 0.55 0.50 0.99 1.57 2.40 2.08 1.97 2.59 2.34 1.52 1.15 1.15 1.53 1.72 1.15 0.97 1.21 1.12 0.46 0.24 0.25 0.24 0.24 0.26 0.29 0.38 0.48 0.47 0.36 0.29 0.32 0.40
5.05 4.42 5.55 6.06 6.32 6.30 5.38 4.44 2.77 1.70 0.92 0.38 0.39 0.45 0.64 1.40 2.59 2.66 2.13 1.99 2.07 2.04 2.11 1.98 1.82 1.56 0.99 1.09 1.16 0.98 0.67 0.37 0.23 0.25 0.35 0.41 0.49 0.51 0.39 0.32 0.35 0.41 0.43 0.52
3.53 4.29 5.96 5.33 5.37 4.96 3.29 2.12 1.11 0.92 0.70 0.52 0.43 0.77 1.14 1.33 2.47 2.93 2.10 1.95 1.91 1.62 2.17 2.50 2.40 1.39 0.86 0.85 0.74 0.78 0.82 0.45 0.37 0.44 0.50 0.36 0.29 0.31 0.38 0.46 0.60 0.62 0.69 0.88
4.44 4.63 4.39 3.56 2.70 1.64 1.07 0.63 0.54 0.62 0.67 0.62 0.60 0.93 1.29 1.64 2.37 3.04 2.38 1.88 1.21 1.58 1.82 2.58 1.92 1.21 1.41 0.91 0.77 0.72 1.01 1.00 0.76 0.72 0.70 0.83 0.74 0.81 0.96 0.85 0.88 0.70 0.79 0.98
3.15 2.44 1.81 1.41 1.21 0.96 0.81 0.68 0.68 0.75 1.09 1.19 1.51 1.60 1.60 1.90 2.23 1.81 1.46 1.11 1.06 1.15 1.61 2.44 1.47 1.16 1.22 0.87 0.62 0.63 0.76 0.90 0.93 0.92 0.93 1.03 0.93 0.84 1.10 1.08 0.89 0.66 0.64 0.64
1.71 1.63 1.46 1.14 1.01 1.13 1.03 0.90 0.93 1.16 1.49 1.59 1.69 1.86 1.94 1.97 1.40 1.18 1.00 0.89 1.39 1.62 1.28 1.25 1.07 1.07 1.11 1.09 0.90 0.85 0.91 0.89 0.83 0.82 0.76 0.74 0.71 0.66 0.68 0.75 0.71 0.65 0.49 0.47
1.42 1.37 1.39 1.36 1.14 1.16 1.20 1.07 1.04 1.08 1.26 1.48 1.27 1.65 1.49 1.43 1.30 1.41 1.20 1.73 2.00 1.39 1.17 1.00 1.04 1.11 1.13 1.02 0.96 0.91 0.78 0.63 0.62 0.66 0.60 0.52 0.46 0.35 0.27 0.35 0.51 0.46 0.45 0.42

GFSNW_prec_precacc_333.txt.gz
Total_Precipitation_Accumulation
1.48 1.54 2.20 2.87 3.01 3.86 4.73 5.09 4.42 2.11 3.61 7.03 6.57 3.30 1.13 0.56 0.31 0.32 0.84 1.15 1.29 1.36 1.38 1.52 2.08 1.62 1.23 0.68 0.85 1.20 1.37 2.63 1.47 0.96 0.64 0.88 1.50 2.82 4.13 5.97 5.51 5.14 4.86 5.05
1.62 1.57 2.04 3.11 3.51 4.44 5.47 6.04 3.70 3.07 4.77 6.06 3.30 1.42 0.69 0.64 0.60 0.52 1.03 1.15 1.37 1.53 1.63 1.97 1.41 1.51 0.97 0.77 1.01 1.49 1.59 2.43 2.01 1.34 1.42 1.61 1.58 1.79 2.54 3.76 4.99 5.31 5.03 5.24
1.98 1.71 1.99 3.24 3.61 4.49 6.06 6.69 4.90 4.83 6.16 3.60 1.46 1.35 1.26 1.05 0.60 0.65 0.83 1.20 1.31 1.32 1.09 1.23 1.48 0.95 0.60 0.42 0.52 0.83 1.63 2.41 1.90 1.73 1.66 1.92 2.06 1.69 1.75 2.97 4.85 3.84 3.56 3.49
2.23 1.95 1.99 3.15 4.00 5.11 7.44 8.26 4.34 2.40 3.39 2.83 1.65 1.55 1.75 1.16 0.91 0.84 0.71 1.17 1.09 1.30 1.49 0.90 0.91 0.83 0.58 0.37 0.34 0.47 1.20 2.28 1.28 1.01 1.01 0.85 1.26 1.79 1.89 2.25 2.28 3.01 3.07 2.64
2.42 2.18 2.22 3.03 4.29 6.38 9.50 7.84 2.66 1.53 1.00 0.75 1.41 2.57 2.35 1.27 0.93 1.26 0.97 0.94 0.63 0.87 1.31 1.18 1.12 1.08 1.16 0.90 0.54 0.57 0.78 1.54 1.31 1.06 0.77 0.67 1.39 1.66 1.42 1.41 1.82 2.21 1.68 2.38
2.48 2.60 2.58 3.15 4.38 7.40 10.59 6.00 2.03 2.48 1.57 0.88 1.53 1.66 1.31 1.06 1.27 1.10 0.85 1.06 1.35 1.04 0.75 0.77 0.81 0.76 1.06 1.04 0.96 0.99 0.92 1.18 1.29 1.02 0.45 0.87 2.22 1.91 1.12 1.09 0.87 0.84 1.12 1.79
2.67 2.62 2.93 3.63 4.50 5.82 5.86 3.78 2.07 3.47 2.71 1.48 1.08 0.73 0.82 0.94 1.25 1.57 0.77 0.84 1.00 0.67 0.51 0.61 0.74 0.65 0.50 0.59 0.49 0.87 1.27 1.03 1.41 1.07 0.93 2.85 2.26 0.86 0.65 0.56 0.41 0.44 0.44 0.50
2.94 2.57 2.82 3.96 4.49 4.13 3.90 3.05 2.83 3.62 2.65 0.95 0.90 0.90 0.83 0.79 1.18 1.32 0.91 0.70 0.76 0.76 0.89 1.44 1.39 1.02 0.83 0.40 0.41 0.38 0.55 1.21 1.79 1.48 1.15 1.74 1.41 0.49 0.46 0.45 0.40 0.26 0.19 0.28
3.28 2.81 2.86 3.75 4.29 3.85 3.92 2.94 3.21 4.43 3.81 1.40 0.60 1.13 1.29 1.25 1.51 1.67 1.07 0.57 0.44 0.78 1.26 1.83 1.79 1.26 0.83 0.57 0.55 0.47 0.71 1.15 2.38 2.08 1.71 2.19 1.23 0.21 0.16 0.42 0.87 0.26 0.13 0.13
3.07 3.14 3.13 3.20 3.77 4.03 4.27 3.36 2.75 5.13 4.78 1.05 0.60 0.94 1.20 1.50 1.50 1.79 1.40 1.11 1.01 1.17 1.74 1.86 1.37 1.20 0.93 1.01 0.89 0.91 1.25 1.87 2.64 2.45 2.70 1.99 0.93 0.33 0.20 1.10 1.41 0.37 0.28 0.20
2.45 2.59 3.26 3.48 3.39 3.96 5.12 3.91 2.43 3.66 4.19 1.38 0.66 0.61 0.86 0.98 1.40 1.65 1.93 2.06 2.12 2.10 2.28 2.06 1.56 1.39 1.34 1.15 0.90 1.11 1.55 1.87 1.92 2.14 2.70 2.54 0.83 0.63 0.94 1.18 0.51 0.23 0.19 0.23
2.37 2.13 2.47 3.53 3.64 3.83 5.02 4.80 3.03 3.38 3.94 2.18 0.91 0.47 0.44 0.59 0.92 1.32 1.53 2.01 1.74 2.42 2.82 2.31 1.69 1.43 1.47 1.13 1.39 0.88 1.57 1.41 1.45 1.41 1.91 1.72 1.34 1.12 0.66 0.39 0.48 0.39 0.24 0.29
2.18 2.03 2.24 3.13 3.68 3.97 4.67 4.29 3.17 5.19 5.11 2.46 1.26 0.97 0.38 0.29 0.29 0.58 1.23 1.24 1.47 1.65 1.86 2.02 1.72 1.57 1.42 1.12 0.95 0.94 0.95 0.99 1.36 1.56 1.22 0.98 1.44 1.00 0.60 0.47 0.53 0.44 0.25 0.26
2.08 2.13 2.45 3.12 3.78 3.94 4.45 4.38 3.42 4.41 4.10 3.50 1.72 0.68 0.64 0.37 0.27 0.23 0.35 0.61 0.69 0.91 1.24 1.73 1.63 1.26 0.95 0.88 0.63 0.60 0.73 0.88 1.02 1.50 1.14 1.09 1.09 1.25 0.69 0.42 0.40 0.40 0.19 0.18
2.13 2.32 2.83 3.59 4.35 4.41 4.71 4.38 3.28 2.90 3.48 3.55 1.86 0.66 0.58 0.66 0.49 0.40 0.37 0.51 0.81 1.22 1.88 1.62 0.83 0.69 1.01 0.70 0.76 0.67 0.43 0.75 1.36 1.59 1.51 1.42 1.28 1.10 1.13 0.74 0.49 0.42 0.52 0.41
2.26 2.45 3.14 3.77 4.35 5.48 7.21 10.54 5.86 2.70 3.02 3.96 2.52 1.27 0.55 0.65 0.69 0.81 0.69 0.72 1.05 1.55 1.83 1.38 0.68 0.46 1.32 1.02 0.84 0.69 0.76 0.49 0.47 0.70 0.78 1.14 1.18 0.72 0.41 0.34 0.22 0.14 0.33 0.28
2.40 2.69 2.95 3.64 4.47 5.63 6.19 5.66 3.65 1.85 3.28 5.18 3.11 2.00 1.07 0.78 1.19 1.25 1.29 1.16 1.72 1.86 2.12 1.48 0.80 0.58 1.38 1.30 0.93 0.67 0.50 0.28 0.15 0.14 0.24 0.30 0.21 0.17 0.04 0.02 0.02 0.02 0.05 0.10
2.83 3.23 3.44 4.24 5.40 6.47 4.09 1.72 1.50 2.08 3.71 3.62 3.13 2.21 1.99 1.11 1.93 1.93 1.44 1.87 2.17 2.08 1.63 1.11 0.76 0.86 1.65 1.60 0.56 0.42 0.28 0.12 0.05 0.07 0.07 0.06 0.05 0.03 0.02 0.02 0.02 0.02 0.03 0.08
3.42 3.87 5.11 7.79 9.01 7.73 4.40 2.25 2.61 2.64 3.47 3.26 1.82 1.65 2.63 1.66 2.09 2.41 1.98 1.91 2.23 1.60 1.43 0.91 1.00 1.15 1.85 1.21 0.63 0.54 0.37 0.27 0.15 0.11 0.08 0.08 0.10 0.11 0.12 0.11 0.12 0.16 0.28 0.33
4.09 6.19 8.84 10.94 7.58 3.94 4.09 6.56 7.84 6.49 3.30 1.74 1.05 0.90 1.88 2.11 2.34 2.73 2.82 2.27 1.59 1.40 0.94 0.99 1.51 1.23 0.84 0.64 0.94 1.23 0.62 0.44 0.22 0.20 0.16 0.17 0.17 0.17 0.23 0.29 0.36 0.46 0.45 0.36
7.15 8.53 7.46 6.21 4.69 4.45 6.40 7.49 6.45 4.59 2.57 0.83 0.55 0.50 0.99 1.57 2.40 2.08 1.97 2.59 2.34 1.52 1.15 1.15 1.53 1.72 1.15 0.97 1.22 1.28 0.58 0.26 0.25 0.24 0.24 0.26 0.29 0.38 0.48 0.47 0.36 0.29 0.32 0.40
5.05 4.42 5.55 6.06 6.32 6.30 5.38 4.44 2.77 1.70 0.92 0.38 0.39 0.45 0.64 1.40 2.59 2.66 2.13 1.99 2.07 2.04 2.11 1.98 1.82 1.56 0.99 1.09 1.16 1.03 0.79 0.39 0.23 0.25 0.35 0.41 0.49 0.51 0.39 0.32 0.35 0.41 0.43 0.52
3.53 4.29 5.96 5.33 5.37 4.96 3.29 2.12 1.11 0.92 0.70 0.52 0.43 0.77 1.14 1.33 2.47 2.93 2.10 1.95 1.91 1.62 2.17 2.50 2.40 1.39 0.86 0.85 0.74 0.78 0.89 0.52 0.40 0.44 0.50 0.36 0.29 0.31 0.38 0.46 0.60 0.62 0.69 0.88
4.44 4.63 4.39 3.56 2.70 1.64 1.07 0.63 0.54 0.62 0.67 0.62 0.60 0.93 1.29 1.64 2.37 3.04 2.38 1.88 1.21 1.58 1.82 2.58 1.92 1.21 1.41 0.91 0.77 0.72 1.01 1.05 0.81 0.73 0.70 0.83 0.74 0.81 0.96 0.85 0.88 0.70 0.79 0.98
3.15 2.44 1.81 1.41 1.21 0.96 0.81 0.68 0.68 0.75 1.09 1.19 1.51 1.60 1.60 1.90 2.23 1.81 1.46 1.11 1.06 1.15 1.61 2.44 1.47 1.16 1.22 0.87 0.62 0.63 0.76 0.90 0.96 0.97 0.94 1.03 0.93 0.84 1.10 1.08 0.89 0.66 0.64 0.64
1.71 1.63 1.46 1.14 1.01 1.13 1.03 0.90 0.93 1.16 1.49 1.59 1.69 1.86 1.94 1.97 1.40 1.18 1.00 0.89 1.39 1.62 1.28 1.25 1.07 1.07 1.11 1.09 0.90 0.85 0.91 0.89 0.83 0.84 0.82 0.76 0.71 0.66 0.68 0.75 0.71 0.65 0.49 0.47
1.42 1.37 1.39 1.36 1.14 1.16 1.20 1.07 1.04 1.08 1.26 1.48 1.27 1.65 1.49 1.43 1.30 1.41 1.20 1.73 2.00 1.39 1.17 1.00 1.04 1.11 1.13 1.02 0.96 0.91 0.78 0.63 0.62 0.66 0.60 0.55 0.49 0.36 0.27 0.35 0.51 0.46 0.45 0.42

GFSNW_prec_precacc_336.txt.gz
Total_Precipitation_Accumulation
1.48 1.54 2.20 2.87 3.01 3.86 4.73 5.09 4.42 2.11 3.61 7.03 6.57 3.30 1.13 0.56 0.31 0.32 0.84 1.15 1.29 1.36 1.38 1.52 2.08 1.62 1.23 0.68 0.85 1.20 1.37 2.63 1.47 0.96 0.64 0.88 1.50 2.82 4.13 5.99 5.58 5.17 4.88 5.17
1.62 1.57 2.04 3.11 3.51 4.44 5.47 6.04 3.70 3.07 4.77 6.06 3.30 1.42 0.69 0.64 0.60 0.52 1.03 1.15 1.37 1.53 1.63 1.97 1.41 1.51 0.97 0.77 1.01 1.49 1.59 2.43 2.01 1.34 1.43 1.61 1.58 1.80 2.54 3.77 5.02 5.33 5.12 5.42
1.98 1.71 1.99 3.24 3.61 4.49 6.06 6.69 4.90 4.83 6.16 3.60 1.46 1.35 1.26 1.05 0.60 0.65 0.83 1.20 1.31 1.32 1.09 1.23 1.48 0.95 0.60 0.42 0.52 0.83 1.63 2.41 1.90 1.73 1.66 1.93 2.06 1.70 1.76 2.97 4.87 3.90 3.61 3.51
2.23 1.95 1.99 3.15 4.00 5.11 7.44 8.26 4.34 2.40 3.39 2.83 1.65 1.55 1.75 1.16 0.91 0.84 0.71 1.17 1.09 1.30 1.49 0.90 0.91 0.83 0.58 0.37 0.34 0.47 1.20 2.28 1.28 1.01 1.01 0.85 1.29 1.83 1.91 2.26 2.30 3.04 3.08 2.65
2.42 2.18 2.22 3.03 4.29 6.38 9.50 7.84 2.66 1.53 1.00 0.75 1.41 2.57 2.35 1.27 0.93 1.26 0.97 0.94 0.63 0.87 1.31 1.18 1.12 1.08 1.16 0.90 0.54 0.57 0.78 1.54 1.31 1.06 0.77 0.67 1.42 1.75 1.45 1.42 1.82 2.21 1.68 2.38
2.48 2.60 2.58 3.15 4.38 7.40 10.59 6.00 2.03 2.48 1.57 0.88 1.53 1.66 1.31 1.06 1.27 1.10 0.85 1.06 1.35 1.04 0.75 0.77 0.81 0.76 1.06 1.04 0.96 0.99 0.92 1.18 1.29 1.02 0.46 0.87 2.24 1.96 1.16 1.09 0.87 0.84 1.12 1.79
2.67 2.62 2.93 3.63 4.50 5.82 5.86 3.78 2.07 3.47 2.71 1.48 1.08 0.73 0.82 0.94 1.25 1.57 0.77 0.84 1.00 0.67 0.51 0.61 0.74 0.65 0.50 0.59 0.49 0.87 1.27 1.03 1.41 1.09 0.95 2.87 2.32 0.93 0.70 0.56 0.41 0.44 0.44 0.50
2.94 2.57 2.82 3.96 4.49 4.13 3.90 3.05 2.83 3.62 2.65 0.95 0.90 0.90 0.83 0.79 1.18 1.32 0.91 0.70 0.76 0.76 0.89 1.44 1.39 1.02 0.83 0.40 0.41 0.38 0.55 1.21 1.79 1.51 1.19 1.77 1.46 0.52 0.47 0.46 0.40 0.26 0.19 0.28
3.28 2.81 2.86 3.75 4.29 3.85 3.92 2.94 3.21 4.43 3.81 1.40 0.60 1.13 1.29 1.25 1.51 1.67 1.07 0.57 0.44 0.78 1.26 1.83 1.79 1.26 0.83 0.57 0.55 0.47 0.71 1.15 2.39 2.12 1.76 2.22 1.26 0.22 0.17 0.42 0.88 0.26 0.13 0.13
3.07 3.14 3.13 3.20 3.77 4.03 4.27 3.36 2.75 5.13 4.78 1.05 0.60 0.94 1.20 1.50 1.50 1.79 1.40 1.11 1.01 1.17 1.74 1.86 1.37 1.20 0.93 1.01 0.89 0.91 1.25 1.87 2.65 2.49 2.72 2.01 0.94 0.35 0.20 1.10 1.41 0.37 0.28 0.20
2.45 2.59 3.26 3.48 3.39 3.96 5.12 3.91 2.43 3.66 4.19 1.38 0.66 0.61 0.86 0.98 1.40 1.65 1.93 2.06 2.12 2.10 2.28 2.06 1.56 1.39 1.34 1.15 0.90 1.11 1.56 1.89 1.93 2.17 2.71 2.55 0.83 0.63 0.94 1.18 0.51 0.23 0.19 0.23
2.37 2.13 2.47 3.53 3.64 3.83 5.02 4.80 3.03 3.38 3.94 2.18 0.91 0.47 0.44 0.59 0.92 1.32 1.53 2.01 1.74 2.42 2.82 2.31 1.69 1.43 1.47 1.13 1.40 0.88 1.58 1.43 1.47 1.42 1.91 1.72 1.34 1.12 0.66 0.39 0.48 0.39 0.24 0.29
2.18 2.03 2.24 3.13 3.68 3.97 4.67 4.29 3.17 5.19 5.11 2.46 1.26 0.97 0.38 0.29 0.29 0.58 1.23 1.24 1.47 1.65 1.86 2.02 1.72 1.57 1.42 1.13 0.96 0.95 0.95 1.01 1.38 1.58 1.24 1.00 1.45 1.00 0.60 0.47 0.53 0.44 0.25 0.26
2.08 2.13 2.45 3.12 3.78 3.94 4.45 4.38 3.42 4.41 4.10 3.50 1.72 0.68 0.64 0.37 0.27 0.23 0.35 0.61 0.69 0.91 1.24 1.73 1.63 1.26 0.95 0.88 0.63 0.63 0.76 0.88 1.03 1.52 1.15 1.09 1.09 1.25 0.69 0.42 0.40 0.40 0.19 0.18
2.13 2.32 2.83 3.59 4.35 4.41 4.71 4.38 3.28 2.90 3.48 3.55 1.86 0.66 0.58 0.66 0.49 0.40 0.37 0.51 0.81 1.22 1.88 1.62 0.83 0.69 1.01 0.70 0.77 0.72 0.47 0.77 1.37 1.59 1.51 1.42 1.28 1.10 1.13 0.74 0.49 0.42 0.52 0.41
2.26 2.45 3.14 3.77 4.35 5.48 7.21 10.54 5.86 2.70 3.02 3.96 2.52 1.27 0.55 0.65 0.69 0.81 0.69 0.72 1.05 1.55 1.83 1.38 0.68 0.46 1.32 1.02 0.88 0.74 0.80 0.52 0.48 0.70 0.78 1.14 1.18 0.72 0.41 0.34 0.22 0.14 0.33 0.28
2.40 2.69 2.95 3.64 4.47 5.63 6.19 5.66 3.65 1.85 3.28 5.18 3.11 2.00 1.07 0.78 1.19 1.25 1.29 1.16 1.72 1.86 2.12 1.48 0.80 0.58 1.38 1.31 0.98 0.73 0.53 0.28 0.15 0.14 0.24 0.30 0.21 0.17 0.04 0.02 0.02 0.02 0.05 0.10
2.83 3.23 3.44 4.24 5.40 6.47 4.09 1.72 1.50 2.08 3.71 3.62 3.13 2.21 1.99 1.11 1.93 1.93 1.44 1.87 2.17 2.08 1.63 1.11 0.76 0.86 1.66 1.63 0.61 0.46 0.30 0.12 0.05 0.07 0.07 0.06 0.05 0.03 0.02 0.02 0.02 0.02 0.03 0.08
3.42 3.87 5.11 7.79 9.01 7.73 4.40 2.25 2.61 2.64 3.47 3.26 1.82 1.65 2.63 1.66 2.09 2.41 1.98 1.91 2.23 1.60 1.43 0.91 1.00 1.16 1.87 1.23 0.65 0.58 0.39 0.28 0.15 0.11 0.08 0.08 0.10 0.11 0.12 0.11 0.12 0.16 0.28 0.33
4.09 6.19 8.84 10.94 7.58 3.94 4.09 6.56 7.84 6.49 3.30 1.74 1.05 0.90 1.88 2.11 2.34 2.73 2.82 2.27 1.59 1.40 0.94 0.99 1.51 1.24 0.85 0.64 0.96 1.26 0.62 0.44 0.22 0.20 0.16 0.17 0.17 0.17 0.23 0.29 0.36 0.46 0.45 0.36
7.15 8.53 7.46 6.21 4.69 4.45 6.40 7.49 6.45 4.59 2.57 0.83 0.55 0.50 0.99 1.57 2.40 2.08 1.97 2.59 2.34 1.52 1.15 1.15 1.53 1.72 1.15 0.97 1.22 1.30 0.58 0.26 0.25 0.24 0.24 0.26 0.29 0.38 0.48 0.47 0.36 0.29 0.32 0.40
5.05 4.42 5.55 6.06 6.32 6.30 5.38 4.44 2.77 1.70 0.92 0.38 0.39 0.45 0.64 1.40 2.59 2.66 2.13 1.99 2.07 2.04 2.11 1.98 1.82 1.56 0.99 1.09 1.16 1.04 0.80 0.39 0.23 0.25 0.35 0.41 0.49 0.51 0.39 0.32 0.35 0.41 0.43 0.52
3.53 4.29 5.96 5.33 5.37 4.96 3.29 2.12 1.11 0.92 0.70 0.52 0.43 0.77 1.14 1.33 2.47 2.93 2.10 1.95 1.91 1.62 2.17 2.50 2.40 1.39 0.86 0.85 0.74 0.78 0.89 0.52 0.40 0.44 0.50 0.36 0.29 0.31 0.38 0.46 0.60 0.62 0.69 0.88
4.44 4.63 4.39 3.56 2.70 1.64 1.07 0.63 0.54 0.62 0.67 0.62 0.60 0.93 1.29 1.64 2.37 3.04 2.38 1.88 1.21 1.58 1.82 2.58 1.92 1.21 1.41 0.91 0.77 0.72 1.01 1.05 0.81 0.73 0.70 0.83 0.74 0.81 0.96 0.85 0.88 0.70 0.79 0.98
3.15 2.44 1.81 1.41 1.21 0.96 0.81 0.68 0.68 0.75 1.09 1.19 1.51 1.60 1.60 1.90 2.23 1.81 1.46 1.11 1.06 1.15 1.61 2.44 1.47 1.16 1.22 0.87 0.62 0.63 0.76 0.90 0.96 0.97 0.94 1.03 0.93 0.84 1.10 1.08 0.89 0.66 0.64 0.64
1.71 1.63 1.46 1.14 1.01 1.13 1.03 0.90 0.93 1.16 1.49 1.59 1.69 1.86 1.94 1.97 1.40 1.18 1.00 0.89 1.39 1.62 1.28 1.25 1.07 1.07 1.11 1.09 0.90 0.85 0.91 0.89 0.83 0.84 0.82 0.76 0.71 0.66 0.68 0.75 0.71 0.65 0.49 0.47
1.42 1.37 1.39 1.36 1.14 1.16 1.20 1.07 1.04 1.08 1.26 1.48 1.27 1.65 1.49 1.43 1.30 1.41 1.20 1.73 2.00 1.39 1.17 1.00 1.04 1.11 1.13 1.02 0.96 0.91 0.78 0.63 0.62 0.66 0.60 0.55 0.49 0.36 0.27 0.35 0.51 0.46 0.45 0.42

GFSNW_prec_precacc_342.txt.gz
Total_Precipitation_Accumulation
1.48 1.54 2.20 2.87 3.01 3.86 4.73 5.09 4.42 2.11 3.61 7.03 6.57 3.30 1.13 0.56 0.31 0.32 0.84 1.15 1.29 1.36 1.38 1.52 2.08 1.62 1.23 0.68 0.85 1.20 1.37 2.63 1.47 0.96 0.64 0.88 1.50 2.83 4.14 6.01 5.60 5.19 4.97 5.28
1.62 1.57 2.04 3.11 3.51 4.44 5.47 6.04 3.70 3.07 4.77 6.06 3.30 1.42 0.69 0.64 0.60 0.52 1.03 1.15 1.37 1.53 1.63 1.97 1.41 1.51 0.97 0.77 1.01 1.49 1.59 2.43 2.01 1.34 1.43 1.61 1.58 1.80 2.55 3.77 5.03 5.37 5.27 5.51
1.98 1.71 1.99 3.24 3.61 4.49 6.06 6.69 4.90 4.83 6.16 3.60 1.46 1.35 1.26 1.05 0.60 0.65 0.83 1.20 1.31 1.32 1.09 1.23 1.48 0.95 0.60 0.42 0.52 0.83 1.63 2.41 1.90 1.74 1.67 1.93 2.07 1.70 1.76 2.98 4.89 3.92 3.65 3.54
2.23 1.95 1.99 3.15 4.00 5.11 7.44 8.26 4.34 2.40 3.39 2.83 1.65 1.55 1.75 1.16 0.91 0.84 0.71 1.17 1.09 1.30 1.49 0.90 0.91 0.83 0.58 0.37 0.34 0.47 1.20 2.28 1.28 1.01 1.02 0.86 1.30 1.84 1.91 2.26 2.31 3.04 3.09 2.65
2.42 2.18 2.22 3.03 4.29 6.38 9.50 7.84 2.66 1.53 1.00 0.75 1.41 2.57 2.35 1.27 0.93 1.26 0.97 0.94 0.63 0.87 1.31 1.18 1.12 1.08 1.16 0.90 0.54 0.57 0.78 1.54 1.31 1.07 0.79 0.68 1.43 1.76 1.45 1.42 1.82 2.21 1.68 2.38
2.48 2.60 2.58 3.15 4.38 7.40 10.59 6.00 2.03 2.48 1.57 0.88 1.53 1.66 1.31 1.06 1.27 1.10 0.85 1.06 1.35 1.04 0.75 0.77 0.81 0.76 1.06 1.04 0.96 0.99 0.92 1.18 1.30 1.05 0.48 0.89 2.26 1.98 1.17 1.09 0.87 0.84 1.12 1.79
2.67 2.62 2.93 3.63 4.50 5.82 5.86 3.78 2.07 3.47 2.71 1.48 1.08 0.73 0.82 0.94 1.25 1.57 0.77 0.84 1.00 0.67 0.51 0.61 0.74 0.65 0.50 0.59 0.49 0.87 1.27 1.04 1.44 1.15 0.99 2.93 2.37 0.94 0.70 0.56 0.41 0.44 0.44 0.50
2.94 2.57 2.82 3.96 4.49 4.13 3.90 3.05 2.83 3.62 2.65 0.95 0.90 0.90 0.83 0.79 1.18 1.32 0.91 0.70 0.76 0.76 0.89 1.44 1.39 1.03 0.84 0.40 0.41 0.38 0.55 1.22 1.84 1.61 1.30 1.83 1.50 0.53 0.47 0.46 0.40 0.26 0.19 0.28
3.28 2.81 2.86 3.75 4.29 3.85 3.92 2.94 3.21 4.43 3.81 1.40 0.60 1.13 1.29 1.25 1.51 1.67 1.07 0.57 0.44 0.78 1.26 1.83 1.79 1.26 0.83 0.57 0.55 0.47 0.71 1.16 2.43 2.33 1.88 2.30 1.29 0.22 0.17 0.42 0.89 0.26 0.13 0.13
3.07 3.14 3.13 3.20 3.77 4.03 4.27 3.36 2.75 5.13 4.78 1.05 0.60 0.94 1.20 1.50 1.50 1.79 1.40 1.11 1.01 1.17 1.74 1.86 1.37 1.20 0.93 1.01 0.90 0.94 1.27 1.91 2.75 2.83 2.76 2.04 0.94 0.36 0.21 1.12 1.42 0.37 0.28 0.20
2.45 2.59 3.26 3.48 3.39 3.96 5.12 3.91 2.43 3.66 4.19 1.38 0.66 0.61 0.86 0.98 1.40 1.65 1.93 2.06 2.12 2.10 2.28 2.06 1.56 1.39 1.34 1.18 0.94 1.14 1.58 1.96 2.11 2.34 2.75 2.58 0.83 0.63 0.95 1.19 0.51 0.23 0.19 0.23
2.37 2.13 2.47 3.53 3.64 3.83 5.02 4.80 3.03 3.38 3.94 2.18 0.91 0.47 0.44 0.59 0.92 1.32 1.53 2.01 1.74 2.42 2.82 2.31 1.69 1.43 1.48 1.16 1.44 0.89 1.60 1.48 1.63 1.48 1.93 1.73 1.34 1.12 0.66 0.39 0.48 0.39 0.24 0.29
2.18 2.03 2.24 3.13 3.68 3.97 4.67 4.29 3.17 5.19 5.11 2.46 1.26 0.97 0.38 0.29 0.29 0.58 1.23 1.24 1.47 1.65 1.86 2.02 1.72 1.57 1.43 1.14 0.98 0.98 0.97 1.04 1.42 1.62 1.28 1.02 1.46 1.00 0.60 0.47 0.53 0.44 0.25 0.26
2.08 2.13 2.45 3.12 3.78 3.94 4.45 4.38 3.42 4.41 4.10 3.50 1.72 0.68 0.64 0.37 0.27 0.23 0.35 0.61 0.69 0.91 1.24 1.73 1.63 1.26 0.95 0.88 0.64 0.65 0.78 0.89 1.04 1.53 1.16 1.09 1.09 1.25 0.69 0.42 0.40 0.40 0.19 0.18
2.13 2.32 2.83 3.59 4.35 4.41 4.71 4.38 3.28 2.90 3.48 3.55 1.86 0.66 0.58 0.66 0.49 0.40 0.37 0.51 0.81 1.22 1.88 1.62 0.83 0.69 1.02 0.70 0.78 0.75 0.50 0.78 1.37 1.59 1.51 1.42 1.28 1.10 1.13 0.74 0.49 0.42 0.52 0.41
2.26 2.45 3.14 3.77 4.35 5.48 7.21 10.55 5.86 2.70 3.02 3.96 2.52 1.27 0.55 0.65 0.69 0.81 0.69 0.72 1.05 1.55 1.83 1.38 0.68 0.46 1.33 1.03 0.91 0.79 0.82 0.52 0.48 0.70 0.78 1.14 1.18 0.72 0.41 0.34 0.22 0.14 0.33 0.28
2.40 2.69 2.95 3.64 4.47 5.63 6.19 5.67 3.65 1.85 3.28 5.18 3.11 2.00 1.07 0.78 1.19 1.25 1.29 1.16 1.72 1.86 2.12 1.48 0.80 0.58 1.38 1.32 1.03 0.77 0.53 0.29 0.15 0.14 0.24 0.30 0.21 0.17 0.04 0.02 0.02 0.02 0.05 0.10
2.83 3.23 3.44 4.24 5.40 6.47 4.09 1.72 1.50 2.08 3.71 3.62 3.13 2.21 1.99 1.11 1.93 1.93 1.44 1.87 2.17 2.08 1.63 1.11 0.76 0.86 1.66 1.65 0.68 0.49 0.31 0.13 0.05 0.07 0.08 0.07 0.05 0.03 0.02 0.02 0.02 0.02 0.03 0.08
3.42 3.87 5.11 7.79 9.01 7.73 4.40 2.25 2.61 2.64 3.47 3.26 1.82 1.65 2.63 1.66 2.09 2.41 1.98 1.91 2.23 1.60 1.43 0.91 1.00 1.17 1.88 1.25 0.67 0.59 0.39 0.29 0.15 0.11 0.08 0.08 0.10 0.11 0.12 0.11 0.12 0.16 0.28 0.33
4.09 6.19 8.84 10.94 7.58 3.94 4.09 6.56 7.84 6.49 3.30 1.74 1.05 0.90 1.88 2.11 2.34 2.73 2.82 2.27 1.59 1.40 0.94 0.99 1.51 1.25 0.85 0.64 0.96 1.26 0.62 0.44 0.22 0.20 0.16 0.17 0.17 0.17 0.23 0.29 0.36 0.46 0.45 0.36
7.15 8.53 7.46 6.21 4.69 4.45 6.40 7.49 6.45 4.59 2.57 0.83 0.55 0.50 0.99 1.57 2.40 2.08 1.97 2.59 2.34 1.52 1.15 1.15 1.53 1.72 1.15 0.97 1.22 1.30 0.58 0.26 0.25 0.24 0.24 0.26 0.29 0.38 0.48 0.47 0.36 0.29 0.32 0.40
5.05 4.42 5.55 6.06 6.32 6.31 5.38 4.44 2.77 1.70 0.92 0.38 0.39 0.45 0.64 1.40 2.59 2.66 2.13 1.99 2.07 2.04 2.11 1.98 1.82 1.56 0.99 1.09 1.16 1.04 0.80 0.39 0.23 0.25 0.35 0.41 0.49 0.51 0.39 0.32 0.35 0.41 0.43 0.52
3.53 4.29 5.96 5.33 5.37 4.96 3.30 2.12 1.11 0.92 0.70 0.52 0.43 0.77 1.14 1.33 2.47 2.93 2.10 1.95 1.91 1.62 2.17 2.50 2.41 1.39 0.86 0.85 0.74 0.78 0.89 0.52 0.40 0.44 0.50 0.36 0.29 0.31 0.38 0.46 0.60 0.62 0.69 0.88
4.44 4.63 4.39 3.56 2.70 1.64 1.07 0.63 0.54 0.62 0.67 0.62 0.60 0.93 1.29 1.64 2.37 3.04 2.38 1.88 1.21 1.58 1.82 2.58 1.92 1.21 1.41 0.91 0.77 0.72 1.01 1.05 0.81 0.73 0.70 0.83 0.74 0.81 0.96 0.85 0.88 0.70 0.79 0.98
3.15 2.44 1.81 1.41 1.21 0.96 0.81 0.68 0.68 0.75 1.09 1.19 1.51 1.60 1.60 1.90 2.23 1.81 1.46 1.11 1.06 1.15 1.61 2.44 1.47 1.16 1.22 0.87 0.62 0.63 0.76 0.90 0.96 0.97 0.94 1.03 0.93 0.84 1.10 1.08 0.89 0.66 0.64 0.64
1.71 1.63 1.46 1.14 1.01 1.13 1.03 0.90 0.93 1.16 1.49 1.59 1.69 1.86 1.94 1.97 1.40 1.18 1.00 0.89 1.39 1.62 1.28 1.25 1.07 1.07 1.11 1.09 0.90 0.85 0.91 0.89 0.83 0.84 0.82 0.76 0.71 0.66 0.68 0.75 0.71 0.65 0.49 0.47
1.42 1.37 1.39 1.36 1.14 1.16 1.20 1.07 1.04 1.08 1.26 1.48 1.27 1.65 1.49 1.43 1.30 1.41 1.20 1.73 2.00 1.39 1.17 1.00 1.04 1.11 1.13 1.02 0.96 0.91 0.78 0.63 0.62 0.66 0.60 0.55 0.49 0.36 0.27 0.35 0.51 0.46 0.45 0.42

GFSNW_prec_precacc_348.txt.gz
Total_Precipitation_Accumulation
1.48 1.54 2.20 2.87 3.01 3.86 4.73 5.09 4.42 2.11 3.61 7.03 6.57 3.30 1.13 0.56 0.31 0.32 0.84 1.15 1.29 1.36 1.38 1.52 2.08 1.62 1.23 0.68 0.85 1.20 1.37 2.63 1.47 0.96 0.64 0.88 1.50 2.83 4.14 6.01 5.60 5.19 4.97 5.28
1.62 1.57 2.04 3.11 3.51 4.44 5.47 6.04 3.70 3.07 4.77 6.06 3.30 1.42 0.69 0.64 0.60 0.52 1.03 1.15 1.37 1.53 1.63 1.97 1.41 1.51 0.97 0.77 1.01 1.49 1.59 2.43 2.01 1.34 1.43 1.61 1.58 1.80 2.55 3.77 5.03 5.37 5.27 5.51
1.98 1.71 1.99 3.24 3.61 4.49 6.06 6.69 4.90 4.83 6.16 3.60 1.46 1.35 1.26 1.05 0.60 0.65 0.83 1.20 1.31 1.32 1.09 1.23 1.48 0.95 0.60 0.42 0.52 0.83 1.63 2.41 1.90 1.74 1.67 1.93 2.07 1.70 1.76 2.98 4.89 3.92 3.65 3.54
2.23 1.95 1.99 3.15 4.00 5.11 7.44 8.26 4.34 2.40 3.39 2.83 1.65 1.55 1.75 1.16 0.91 0.84 0.71 1.17 1.09 1.30 1.49 0.90 0.91 0.83 0.58 0.37 0.34 0.47 1.20 2.28 1.28 1.01 1.02 0.86 1.30 1.84 1.91 2.26 2.31 3.04 3.09 2.65
2.42 2.18 2.22 3.03 4.29 6.38 9.50 7.84 2.66 1.53 1.00 0.75 1.41 2.57 2.35 1.27 0.93 1.26 0.97 0.94 0.63 0.87 1.31 1.18 1.12 1.08 1.16 0.90 0.54 0.57 0.78 1.54 1.31 1.08 0.79 0.68 1.43 1.76 1.45 1.42 1.82 2.21 1.68 2.38
2.48 2.60 2.58 3.15 4.38 7.40 10.59 6.00 2.03 2.48 1.57 0.88 1.53 1.66 1.31 1.06 1.27 1.10 0.85 1.06 1.35 1.04 0.75 0.77 0.81 0.76 1.06 1.04 0.96 0.99 0.92 1.20 1.30 1.09 0.49 0.90 2.29 1.98 1.17 1.09 0.87 0.84 1.13 1.80
2.67 2.62 2.93 3.63 4.50 5.82 5.86 3.78 2.07 3.47 2.71 1.48 1.08 0.73 0.82 0.94 1.25 1.57 0.77 0.84 1.00 0.67 0.51 0.61 0.74 0.65 0.50 0.59 0.49 0.87 1.29 1.13 1.52 1.20 1.06 2.97 2.39 0.94 0.70 0.56 0.41 0.44 0.44 0.50
2.94 2.57 2.82 3.96 4.49 4.13 3.90 3.05 2.83 3.62 2.65 0.95 0.90 0.90 0.83 0.79 1.18 1.32 0.91 0.70 0.76 0.76 0.89 1.44 1.39 1.03 0.84 0.40 0.41 0.38 0.57 1.28 2.02 1.71 1.44 1.89 1.51 0.53 0.47 0.46 0.41 0.26 0.19 0.28
3.28 2.81 2.86 3.75 4.29 3.85 3.92 2.94 3.21 4.43 3.81 1.40 0.60 1.13 1.29 1.25 1.51 1.67 1.07 0.57 0.44 0.78 1.26 1.83 1.79 1.26 0.83 0.57 0.55 0.48 0.76 1.19 2.76 2.36 1.96 2.39 1.31 0.23 0.17 0.42 0.89 0.26 0.13 0.13
3.07 3.14 3.13 3.20 3.77 4.03 4.27 3.36 2.75 5.13 4.78 1.05 0.60 0.94 1.20 1.50 1.50 1.79 1.40 1.11 1.01 1.17 1.74 1.86 1.37 1.20 0.93 1.01 0.91 0.95 1.36 2.14 2.86 2.93 2.81 2.09 0.94 0.36 0.21 1.12 1.42 0.37 0.28 0.20
2.45 2.59 3.26 3.48 3.39 3.96 5.12 3.91 2.43 3.66 4.19 1.38 0.66 0.61 0.86 0.98 1.40 1.65 1.93 2.06 2.12 2.10 2.28 2.06 1.56 1.39 1.34 1.19 0.95 1.17 1.64 2.02 2.23 2.41 2.81 2.60 0.83 0.63 0.96 1.19 0.51 0.23 0.19 0.23
2.37 2.13 2.47 3.53 3.64 3.83 5.02 4.80 3.03 3.38 3.94 2.18 0.91 0.47 0.44 0.59 0.92 1.32 1.53 2.01 1.74 2.42 2.82 2.31 1.69 1.43 1.48 1.16 1.45 0.89 1.62 1.51 1.68 1.52 1.96 1.73 1.34 1.12 0.66 0.39 0.48 0.39 0.24 0.29
2.18 2.03 2.24 3.13 3.68 3.97 4.67 4.29 3.17 5.19 5.11 2.46 1.26 0.97 0.38 0.29 0.29 0.58 1.23 1.24 1.47 1.65 1.86 2.02 1.72 1.57 1.43 1.14 0.99 0.99 1.01 1.07 1.44 1.66 1.30 1.02 1.46 1.00 0.60 0.47 0.53 0.44 0.25 0.26
2.08 2.13 2.45 3.12 3.78 3.94 4.45 4.38 3.42 4.41 4.10 3.50 1.72 0.68 0.64 0.37 0.27 0.23 0.35 0.61 0.69 0.91 1.24 1.73 1.63 1.26 0.95 0.89 0.65 0.66 0.80 0.90 1.05 1.54 1.16 1.10 1.09 1.25 0.69 0.42 0.40 0.40 0.19 0.18
2.13 2.32 2.83 3.59 4.35 4.41 4.71 4.38 3.28 2.90 3.48 3.55 1.86 0.66 0.58 0.66 0.49 0.40 0.37 0.51 0.81 1.22 1.88 1.62 0.83 0.69 1.02 0.70 0.78 0.77 0.51 0.79 1.38 1.60 1.52 1.43 1.28 1.10 1.13 0.74 0.49 0.42 0.52 0.41
2.26 2.45 3.14 3.77 4.35 5.48 7.21 10.55 5.86 2.70 3.02 3.96 2.52 1.27 0.55 0.65 0.69 0.81 0.69 0.72 1.05 1.55 1.83 1.38 0.68 0.46 1.33 1.03 0.91 0.80 0.83 0.53 0.49 0.71 0.79 1.15 1.18 0.72 0.41 0.34 0.22 0.14 0.33 0.28
2.40 2.69 2.95 3.64 4.47 5.63 6.19 5.67 3.65 1.85 3.28 5.18 3.11 2.00 1.07 0.78 1.19 1.25 1.29 1.16 1.72 1.86 2.12 1.48 0.80 0.58 1.38 1.32 1.04 0.78 0.54 0.29 0.15 0.14 0.24 0.30 0.21 0.17 0.04 0.02 0.02 0.02 0.05 0.10
2.83 3.23 3.44 4.24 5.40 6.47 4.09 1.72 1.50 2.08 3.71 3.62 3.13 2.21 1.99 1.11 1.93 1.93 1.44 1.87 2.17 2.08 1.63 1.11 0.76 0.86 1.66 1.66 0.68 0.49 0.31 0.13 0.05 0.07 0.08 0.07 0.05 0.03 0.02 0.02 0.02 0.02 0.03 0.08
3.42 3.87 5.11 7.79 9.01 7.73 4.40 2.25 2.61 2.64 3.47 3.26 1.82 1.65 2.63 1.66 2.09 2.41 1.98 1.91 2.23 1.60 1.43 0.91 1.00 1.17 1.88 1.25 0.67 0.59 0.39 0.29 0.15 0.11 0.08 0.08 0.10 0.11 0.12 0.11 0.12 0.16 0.28 0.33
4.09 6.19 8.84 10.94 7.58 3.94 4.09 6.56 7.84 6.49 3.30 1.74 1.05 0.90 1.88 2.11 2.34 2.73 2.82 2.27 1.59 1.40 0.94 0.99 1.51 1.25 0.85 0.64 0.96 1.26 0.62 0.44 0.22 0.20 0.16 0.17 0.17 0.17 0.23 0.29 0.36 0.46 0.45 0.36
7.15 8.53 7.46 6.21 4.69 4.45 6.40 7.49 6.45 4.59 2.57 0.83 0.55 0.50 0.99 1.57 2.40 2.08 1.97 2.59 2.34 1.52 1.15 1.15 1.53 1.72 1.15 0.97 1.22 1.30 0.58 0.26 0.25 0.24 0.24 0.26 0.29 0.38 0.48 0.47 0.36 0.29 0.32 0.40
5.05 4.42 5.55 6.06 6.32 6.31 5.38 4.44 2.77 1.70 0.92 0.38 0.39 0.45 0.64 1.40 2.59 2.66 2.13 1.99 2.07 2.04 2.11 1.98 1.82 1.56 0.99 1.09 1.16 1.04 0.80 0.39 0.23 0.25 0.35 0.41 0.49 0.51 0.39 0.32 0.35 0.41 0.43 0.52
3.53 4.29 5.96 5.33 5.37 4.96 3.30 2.12 1.11 0.92 0.70 0.52 0.43 0.77 1.14 1.33 2.47 2.93 2.10 1.95 1.91 1.62 2.17 2.50 2.41 1.39 0.86 0.85 0.74 0.78 0.89 0.52 0.40 0.44 0.50 0.36 0.29 0.31 0.38 0.46 0.60 0.62 0.69 0.88
4.44 4.63 4.39 3.56 2.70 1.64 1.07 0.63 0.54 0.62 0.67 0.62 0.60 0.93 1.29 1.64 2.37 3.04 2.38 1.88 1.21 1.58 1.82 2.58 1.92 1.21 1.41 0.91 0.77 0.72 1.01 1.05 0.81 0.73 0.70 0.83 0.74 0.81 0.96 0.85 0.88 0.70 0.79 0.98
3.15 2.44 1.81 1.41 1.21 0.96 0.81 0.68 0.68 0.75 1.09 1.19 1.51 1.60 1.60 1.90 2.23 1.81 1.46 1.11 1.06 1.15 1.61 2.44 1.47 1.16 1.22 0.87 0.62 0.63 0.76 0.90 0.96 0.97 0.94 1.03 0.93 0.84 1.10 1.08 0.89 0.66 0.64 0.64
1.71 1.63 1.46 1.14 1.01 1.13 1.03 0.90 0.93 1.16 1.49 1.59 1.69 1.86 1.94 1.97 1.40 1.18 1.00 0.89 1.39 1.62 1.28 1.25 1.07 1.07 1.11 1.09 0.90 0.85 0.91 0.89 0.83 0.84 0.82 0.76 0.71 0.66 0.68 0.75 0.71 0.65 0.49 0.47
1.42 1.37 1.39 1.36 1.14 1.16 1.20 1.07 1.04 1.08 1.26 1.48 1.27 1.65 1.49 1.43 1.30 1.41 1.20 1.73 2.00 1.39 1.17 1.00 1.04 1.11 1.13 1.02 0.96 0.91 0.78 0.63 0.62 0.66 0.60 0.55 0.49 0.36 0.27 0.35 0.51 0.46 0.45 0.42